Home   Weather   Irvine   Past weeks

Flag for USA Past Weather in Irvine, California, USA — Yesterday and Last 2 Weeks

Now
61 °F

Scattered clouds.


Feels Like: 61 °F
Forecast: 54 / 61 °F
Wind: 9 mph from Southwest

Location: John Wayne Airport-Orange County Airport

Current Time: Jan 19, 2017 at 1:30:17 pm

Latest Report: Jan 19, 2017 at 12:53 pm


Visibility: 10 mi

Pressure: 29.93 "Hg

Humidity: 70%

Dew Point: 51 °F

Location of IrvineLocation

Past Weather in Irvine — Graph

°F

Irvine Temperature Yesterday

Maximum temperature yesterday: 60 °F (at 12:53 pm)
Minimum temperature yesterday: 47 °F (at 4:09 am)
Average temperature yesterday: 53 °F

High & Low Weather Summary for the Past Weeks

 TemperatureHumidityPressure
High76 °F (Jan 8, 1:53 pm)100% (Jan 5, 4:53 am)30.20 "Hg (Jan 5, 4:53 am)
Low46 °F (Jan 17, 4:53 am)29% (Jan 7, 2:53 pm)29.93 "Hg (Jan 12, 4:53 am)
Average57 °F83%30.06 "Hg
* Reported Jan 4 11:53 am — Jan 19 11:53 am, Irvine, Weather by CustomWeather, © 2017

Note: Actual official high and low records may vary slightly from our data, if they occured in-between our weather recording intervals... More about our weather records

Advertising

Irvine Weather History for the Previous 24 Hours

Scroll right to see more
 ConditionsComfort  
Time TempWeatherWind HumidityBarometerVisibility
11:53 am
Thu, Jan 19
61 °FScattered clouds.8 mph72%29.94 "Hg10 mi
10:56 am60 °FBroken clouds.13 mph78%29.97 "Hg10 mi
10:00 am59 °FPartly sunny.8 mph84%29.98 "Hg10 mi
9:53 am59 °FScattered clouds.8 mph84%29.97 "Hg10 mi
8:53 am58 °FScattered clouds.6 mph90%29.95 "Hg10 mi
8:32 am58 °FScattered clouds.6 mph90%29.95 "Hg10 mi
7:53 am57 °FCloudy.6 mph96%29.94 "Hg10 mi
7:32 am57 °FLight rain. Cloudy.7 mph96%29.94 "Hg7 mi
6:53 am55 °FLight rain. Fog.7 mph100%29.93 "Hg2 mi
6:25 am55 °FLight rain. Fog.10 mph100%29.94 "Hg5 mi
6:12 am55 °FHeavy rain. Fog.8 mph100%29.94 "Hg2 mi
6:00 am55 °FRain. Fog.9 mph100%29.94 "Hg3 mi
5:53 am55 °FHeavy rain. Fog.14 mph100%29.93 "Hg2 mi
5:35 am56 °FRain. Fog.13 mph97%29.93 "Hg3 mi
5:13 am55 °FHeavy rain. Fog.9 mph96%29.95 "Hg2 mi
4:59 am53 °FRain. Fog.6 mph100%29.96 "Hg3 mi
4:36 am53 °FRain. Fog.5 mph96%29.97 "Hg2 mi
4:04 am53 °FRain. Fog.7 mph96%29.98 "Hg4 mi
3:41 am54 °FLight rain. Fog.6 mph93%30.00 "Hg5 mi
2:53 am55 °FLight rain. Fog.9 mph87%30.02 "Hg4 mi
2:18 am56 °FLight rain. Overcast.9 mph84%30.04 "Hg10 mi
1:53 am56 °FMostly cloudy.8 mph81%30.04 "Hg10 mi
12:53 am55 °FOvercast.5 mph80%30.01 "Hg10 mi
11:53 pm
Wed, Jan 18
55 °FClear.No wind80%30.01 "Hg10 mi
10:53 pm55 °FPassing clouds.3 mph83%30.05 "Hg10 mi
9:53 pm55 °FOvercast.3 mph80%30.08 "Hg10 mi
8:53 pm55 °FOvercast.9 mph83%30.11 "Hg10 mi
7:53 pm56 °FLight rain. Mostly cloudy.8 mph77%30.11 "Hg10 mi
6:53 pm57 °FPassing clouds.No wind67%30.14 "Hg10 mi
5:53 pm58 °FPassing clouds.5 mph67%30.14 "Hg10 mi
4:53 pm58 °FPartly sunny.5 mph70%30.13 "Hg10 mi
3:53 pm58 °FBroken clouds.8 mph70%30.12 "Hg10 mi
2:53 pm59 °FPartly sunny.6 mph67%30.11 "Hg10 mi
1:53 pm59 °FPartly sunny.6 mph67%30.10 "Hg10 mi
Weather by CustomWeather, © 2017

See weather overviewHow to use our weather pages